Miscellaneous Local Product
Issued by NWS Hastings, NE

Home | Current Version | Previous Version | Text Only | Print | Product List | Glossary Off
Versions: 1 2 3 4 5 6 7 8 9 10 11 12 13 14 15 16 17 18 19 20 21 22 23 24 25 26 27 28 29 30 31 32 33 34 35 36 37 38 39 40 41 42 43 44 45 46 47 48 49 50

000
AXUS43 KGID 301202
MISGRI

GID CWA HOURLY WEATHER ROUNDUP
NATIONAL WEATHER SERVICE HASTINGS NE
600 AM CST FRI JAN 30 2015

NOTE: "FAIR" INDICATES FEW OR NO CLOUDS BELOW 12,000 FEET WITH NO
SIGNIFICANT WEATHER AND/OR OBSTRUCTIONS TO VISIBILITY.

...SOUTH CENTRAL NEBRASKA...

CITY           SKY/WX    TMP DP  RH WIND       PRES   REMARKS
GRAND ISLAND   CLEAR     20  18  92 S7        30.48S WCI  11
HASTINGS       PTCLDY    20  17  88 S6        30.46F WCI  12
KEARNEY        PTCLDY    19  16  86 S8        30.44F WCI   9
ORD            CLEAR     20  16  84 S6        30.43F WCI  12
YORK           PTCLDY    18  16  93 S3        30.50R
AURORA         PTCLDY    21  20  96 S5        30.48S WCI  14
LEXINGTON      MOCLDY    23  19  85 SE3       30.41F
HOLDREGE       PTCLDY    23  19  84 S8        30.43F WCI  14
HEBRON         PTCLDY    13  10  87 CALM      30.51S

...NEBRASKA PANHANDLE...

CITY           SKY/WX    TMP DP  RH WIND       PRES   REMARKS
CHADRON        MOCLDY    34  18  52 S7        30.22F WCI  28
ALLIANCE       CLOUDY    25  21  85 SE5       30.25F WCI  19
SCOTTSBLUFF    CLOUDY    29  22  75 E8        30.24F WCI  21
SIDNEY         CLOUDY    29  21  72 S6        30.25F WCI  23

...WESTERN AND NORTH CENTRAL NEBRASKA...

CITY           SKY/WX    TMP DP  RH WIND       PRES   REMARKS
VALENTINE      PTCLDY    20  16  84 SE3       30.32F
AINSWORTH      CLEAR     23  19  86 S12       30.34F WCI  12
ONEILL         PTCLDY    20  19  93 S8        30.43S WCI  10
BROKEN BOW     PTCLDY    22  18  85 SE5       30.39F WCI  16
IMPERIAL       CLOUDY    29  21  72 S8        30.33F WCI  21
NORTH PLATTE   MOCLDY    19  15  84 E5        30.37F WCI  12
MCCOOK         CLOUDY    21  16  81 CALM      30.39F

...EASTERN NEBRASKA...

CITY           SKY/WX    TMP DP  RH WIND       PRES   REMARKS
NORFOLK        CLEAR     15  13  91 SW3       30.47F
SO SIOUX CITY  CLEAR     17  14  88 SE6       30.51F WCI   9
TEKAMAH        FAIR      16  13  88 CALM      30.52F
COLUMBUS       CLEAR     12   3  67 CALM      30.50S
ALBION         PTCLDY    16  13  89 CALM      30.47S
OMAHA EPPLEY   PTCLDY    19  17  92 CALM      30.53F
OFFUTT AFB     PTCLDY    15  13  90 SW2       30.53S
MILLARD        PTCLDY    19  16  90 CALM      30.53S
LINCOLN        CLEAR     16  13  88 CALM      30.53F
NEBRASKA CITY  PTCLDY    20  19  96 CALM      30.52F FOG
BEATRICE       PTCLDY    13  10  87 CALM      30.51S
FALLS CITY     MOCLDY    16  12  84 CALM      30.52F

...NORTHERN KANSAS...

CITY           SKY/WX    TMP DP  RH WIND       PRES   REMARKS
GOODLAND       CLOUDY    29  22  75 S14       30.34F WCI  18
HILL CITY      PTCLDY    19  15  84 W3        30.45F
NORTON         SUNNY     18  12  79 SW5       30.42F WCI  11
PHILLIPSBURG   CLEAR     21  18  86 CALM      30.47F
SMITH CENTER   CLEAR     19  18  93 E9        30.49S WCI   9
BELOIT         CLEAR     16  14  93 CALM      30.51F
HAYS           PTCLDY    18   7  62 W3        30.47F
RUSSELL        PTCLDY    19  17  92 S5        30.47S WCI  12
CONCORDIA      PTCLDY    22  20  92 S3        30.51S
SALINA         PTCLDY    22  17  81 CALM      30.53S
TOPEKA         PTCLDY    18  15  88 CALM      30.55S



USA.gov is the U.S. government's official web portal to all federal, state and local government web resources and services.